User: anonymous   Login
Location: Halvern
(37.6252°N, 122.0525°W)
Time: 09:10:44
(UTC+00:00)
Language:

NOSS 0 Rocket - Orbit

View from above orbital plane
View from above orbital plane
View from above satellite
View from above satellite

Ground track
Ground track

The orbit data is extracted from the following two-line orbital elements,

1  5679U 71110B   25194.88242769 -.00000017  00000-0  29886-4 0  9990
2  5679  69.9980 350.2907 0013436 202.7226 157.3281 13.85632587322499
Epoch (UTC): 13 July 2025 21:10:41
Eccentricity: 0.0013436
inclination: 69.9980°
perigee height: 934 km
apogee height: 954 km
right ascension of ascending node: 350.2907°
argument of perigee: 202.7226°
revolutions per day: 13.85632587
mean anomaly at epoch: 157.3281°
orbit number at epoch: 32249

The dashed part of the orbit path shows where the satellite is in the earth's shadow,  

DLR